Weather History for KFRM - May, 2014

Change the Weather History Date:

Sunday, May 11, 2014

  Actual Average (KEST) Record (KEST)
Temperature  
Mean Temperature 58 °F 57 °F  
Max Temperature 71 °F 69 °F - ()
Min Temperature 44 °F 45 °F - ()
Degree Days  
Heating Degree Days 8 9  
Month to date heating degree days 115  
Since 1 July heating degree days 7576  
Cooling Degree Days 0 1  
Month to date cooling degree days 5  
Year to date cooling degree days 7  
Growing Degree Days 8 (Base 50)    
Moisture  
Dew Point 50 °F    
Average Humidity 75    
Maximum Humidity 94    
Minimum Humidity 49    
Precipitation  
Precipitation 0.98 in 0.14 in - ()
Month to date precipitation 1.37  
Sea Level Pressure  
Sea Level Pressure 29.82 in    
Wind  
Wind Speed 6 mph (East)    
Max Wind Speed 26 mph    
Max Gust Speed 32 mph    
Visibility 9 miles    
Events Thunderstorm    
T = Trace of Precipitation, MM = Missing Value Source: NWS Daily Summary

Daily Weather History Graph

Daily Weather History Graph

Search for Another Location

Airport or City:

Trip Planner

Search our weather history database for the weather conditions in past years. The results will help you decide how hot, cold, wet, or windy it might be!

Date:

Astronomy

May. 11, 2014 Rise Set
Actual Time 5:57 AM CDT 8:31 PM CDT
Civil Twilight 5:24 AM CDT 9:04 PM CDT
Nautical Twilight 4:43 AM CDT 9:45 PM CDT
Astronomical Twilight 3:57 AM CDT 10:32 PM CDT
Moon 5:22 PM CDT (5/11) 4:09 AM CDT (5/11)
Length of Visible Light 15h 39m
Length of Day
14h 34m
Waxing Gibbous, 89% of the Moon is Illuminated
May 11
Waxing Gibbous
May 14
Full
May 21
Last Quarter
May 28
New
Jun 5
First Quarter

Hourly Weather History & Observations

Time (CDT) Temp. Windchill Dew Point Humidity Pressure Visibility Wind Dir Wind Speed Gust Speed Precip Events Conditions
12:15 AM 53.6 °F - 46.4 °F 77% 29.85 in 10.0 mi Calm Calm - N/A   Clear
12:35 AM 53.6 °F - 46.4 °F 77% 29.85 in 10.0 mi Calm Calm - N/A   Clear
12:55 AM 53.6 °F - 46.4 °F 77% 29.85 in 10.0 mi SE 4.6 mph - N/A   Clear
1:15 AM 51.8 °F - 46.4 °F 82% 29.84 in 10.0 mi ESE 4.6 mph - N/A   Clear
1:35 AM 53.6 °F - 46.4 °F 77% 29.84 in 10.0 mi SE 5.8 mph - N/A   Clear
1:55 AM 50.0 °F - 44.6 °F 82% 29.84 in 10.0 mi Calm Calm - N/A   Clear
2:15 AM 51.8 °F - 46.4 °F 82% 29.84 in 10.0 mi SE 3.5 mph - N/A   Clear
2:35 AM 50.0 °F - 44.6 °F 82% 29.83 in 10.0 mi ESE 4.6 mph - N/A   Clear
2:55 AM 50.0 °F - 44.6 °F 82% 29.81 in 10.0 mi ESE 4.6 mph - N/A   Clear
3:15 AM 51.8 °F - 46.4 °F 82% 29.83 in 10.0 mi SSE 4.6 mph - N/A   Clear
3:35 AM 50.0 °F - 44.6 °F 82% 29.83 in 10.0 mi Calm Calm - N/A   Clear
3:55 AM 48.2 °F - 42.8 °F 82% 29.83 in 10.0 mi Calm Calm - N/A   Clear
4:15 AM 48.2 °F - 42.8 °F 82% 29.84 in 10.0 mi Calm Calm - N/A   Clear
4:35 AM 46.4 °F - 44.6 °F 93% 29.85 in 10.0 mi Calm Calm - N/A   Clear
4:55 AM 48.2 °F - 44.6 °F 87% 29.85 in 10.0 mi WNW 3.5 mph - N/A   Clear
5:15 AM 48.2 °F - 44.6 °F 87% 29.85 in 10.0 mi Calm Calm - N/A   Clear
5:35 AM 46.4 °F - 42.8 °F 87% 29.84 in 10.0 mi Calm Calm - N/A   Clear
5:55 AM 46.4 °F 44.3 °F 44.6 °F 93% 29.83 in 5.0 mi North 4.6 mph - N/A   Clear
6:15 AM 46.4 °F 45.2 °F 44.6 °F 93% 29.83 in 1.0 mi North 3.5 mph - N/A   Clear
6:35 AM 44.6 °F 43.1 °F 42.8 °F 93% 29.84 in 5.0 mi North 3.5 mph - N/A   Clear
6:55 AM 46.4 °F 45.2 °F 44.6 °F 93% 29.84 in 7.0 mi NW 3.5 mph - N/A   Clear
7:15 AM 46.4 °F 43.5 °F 44.6 °F 93% 29.85 in 9.0 mi WNW 5.8 mph - N/A   Clear
7:35 AM 50.0 °F - 46.4 °F 87% 29.86 in 10.0 mi NW 6.9 mph - N/A   Clear
7:55 AM 50.0 °F - 46.4 °F 87% 29.86 in 10.0 mi ESE 8.1 mph - N/A   Clear
8:15 AM 51.8 °F - 46.4 °F 82% 29.86 in 10.0 mi ENE 4.6 mph - N/A   Clear
8:35 AM 51.8 °F - 46.4 °F 82% 29.87 in 10.0 mi NNE 8.1 mph - N/A   Mostly Cloudy
8:55 AM 51.8 °F - 46.4 °F 82% 29.86 in 10.0 mi NNE 8.1 mph - N/A   Mostly Cloudy
9:15 AM 51.8 °F - 46.4 °F 82% 29.89 in 10.0 mi NW 6.9 mph - N/A   Mostly Cloudy
9:35 AM 51.8 °F - 46.4 °F 82% 29.89 in 10.0 mi NNW 3.5 mph - N/A   Mostly Cloudy
9:55 AM 53.6 °F - 46.4 °F 77% 29.91 in 9.0 mi SSW 3.5 mph 21.9 mph N/A   Mostly Cloudy
10:15 AM 53.6 °F - 48.2 °F 82% 29.93 in 10.0 mi South 11.5 mph - N/A   Mostly Cloudy
10:35 AM 53.6 °F - 48.2 °F 82% 29.94 in 10.0 mi WSW 9.2 mph - N/A   Overcast
10:55 AM 55.4 °F - 48.2 °F 77% 29.92 in 10.0 mi SW 5.8 mph - N/A   Overcast
11:15 AM 55.4 °F - 48.2 °F 77% 29.90 in 10.0 mi Calm Calm - N/A   Overcast
11:35 AM 55.4 °F - 48.2 °F 77% 29.90 in 10.0 mi ESE 6.9 mph - N/A   Overcast
12:15 PM 57.2 °F - 48.2 °F 72% 29.90 in 10.0 mi East 6.9 mph - N/A   Scattered Clouds
12:35 PM 57.2 °F - 46.4 °F 67% 29.88 in 10.0 mi ENE 10.4 mph - N/A   Mostly Cloudy
12:55 PM 59.0 °F - 46.4 °F 63% 29.89 in 10.0 mi NE 8.1 mph - N/A   Partly Cloudy
1:15 PM 60.8 °F - 46.4 °F 59% 29.88 in 10.0 mi NNE 10.4 mph - N/A   Partly Cloudy
1:35 PM 62.6 °F - 46.4 °F 55% 29.86 in 10.0 mi NNE 15.0 mph - N/A   Partly Cloudy
1:55 PM 64.4 °F - 48.2 °F 56% 29.85 in 10.0 mi NNE 13.8 mph - N/A   Clear
2:15 PM 66.2 °F - 48.2 °F 52% 29.85 in 10.0 mi NE 12.7 mph - N/A   Clear
2:35 PM 66.2 °F - 48.2 °F 52% 29.85 in 10.0 mi ENE 11.5 mph 19.6 mph N/A   Clear
2:55 PM 68.0 °F - 50.0 °F 52% 29.84 in 10.0 mi ENE 11.5 mph - N/A   Clear
3:15 PM 69.8 °F - 50.0 °F 49% 29.82 in 10.0 mi ENE 15.0 mph - N/A   Clear
3:55 PM 71.6 °F - 51.8 °F 50% 29.81 in 10.0 mi East 11.5 mph - N/A   Clear
4:15 PM 71.6 °F - 51.8 °F 50% 29.80 in 10.0 mi ENE 13.8 mph 20.7 mph N/A   Clear
4:35 PM 71.6 °F - 51.8 °F 50% 29.80 in 10.0 mi East 13.8 mph - N/A   Mostly Cloudy
4:55 PM 71.6 °F - 51.8 °F 50% 29.79 in 10.0 mi East 17.3 mph - N/A   Overcast
5:15 PM 71.6 °F - 51.8 °F 50% 29.77 in 10.0 mi East 15.0 mph - N/A   Overcast
5:35 PM 69.8 °F - 53.6 °F 56% 29.77 in 10.0 mi East 16.1 mph - N/A   Overcast
5:55 PM 69.8 °F - 53.6 °F 56% 29.77 in 10.0 mi East 13.8 mph 18.4 mph N/A   Overcast
6:15 PM 69.8 °F - 53.6 °F 56% 29.75 in 10.0 mi East 16.1 mph - N/A   Overcast
6:35 PM 68.0 °F - 55.4 °F 64% 29.75 in 10.0 mi East 12.7 mph - N/A   Overcast
6:55 PM 68.0 °F - 55.4 °F 64% 29.73 in 10.0 mi East 13.8 mph - N/A   Overcast
7:15 PM 68.0 °F - 57.2 °F 68% 29.72 in 10.0 mi East 12.7 mph - N/A   Overcast
7:35 PM 68.0 °F - 55.4 °F 64% 29.73 in 10.0 mi ESE 15.0 mph - N/A Thunderstorm Overcast
7:55 PM 64.4 °F - 57.2 °F 77% 29.73 in 2.0 mi East 19.6 mph 26.5 mph 0.37 in Thunderstorm Thunderstorm
8:15 PM 64.4 °F - 59.0 °F 83% 29.73 in 10.0 mi East 13.8 mph - 0.07 in Thunderstorm Thunderstorm
8:35 PM 62.6 °F - 59.0 °F 88% 29.74 in 5.0 mi NE 5.8 mph - 0.24 in Thunderstorm Thunderstorm
8:55 PM 62.6 °F - 59.0 °F 88% 29.72 in 10.0 mi East 13.8 mph - 0.25 in Thunderstorm Overcast
9:15 PM 62.6 °F - 57.2 °F 82% 29.73 in 10.0 mi ESE 9.2 mph - 0.01 in   Overcast
9:35 PM 64.4 °F - 59.0 °F 83% 29.73 in 10.0 mi ESE 18.4 mph - 0.04 in Thunderstorm Overcast
9:55 PM 62.6 °F - 59.0 °F 88% 29.72 in 10.0 mi SE 16.1 mph - 0.09 in   Mostly Cloudy
10:15 PM 64.4 °F - 59.0 °F 83% 29.72 in 9.0 mi ESE 13.8 mph - 0.05 in Thunderstorm Thunderstorm
10:35 PM 62.6 °F - 60.8 °F 94% 29.72 in 10.0 mi SE 12.7 mph - 0.17 in Thunderstorm Thunderstorm
10:55 PM 64.4 °F - 60.8 °F 88% 29.73 in 9.0 mi SSE 12.7 mph 18.4 mph 0.19 in Thunderstorm Overcast
11:15 PM 64.4 °F - 59.0 °F 83% 29.70 in 9.0 mi SSE 16.1 mph - 0.03 in Thunderstorm Mostly Cloudy
11:35 PM 64.4 °F - 60.8 °F 88% 29.68 in 10.0 mi SSE 26.5 mph 32.2 mph 0.07 in Thunderstorm Thunderstorm
11:55 PM 62.6 °F - 57.2 °F 82% 29.64 in 10.0 mi ESE 20.7 mph 25.3 mph 0.08 in   Overcast